Probability
0 0 0 0 0 0 0 0 0 0 0 0 0 1 1 1 2 3 3 3 3 3 4 7 8 9 8 6 5 4 2 1 1 1 1 2 2 1 0 0 0 0 0 1
0 0 0 0 0 0 0 0 0 0 0 0 1 1 1 1 1 2 2 2 3 3 4 7 8 9 10 9 8 7 5 2 1 0 0 1 1 0 0 0 0 0 1 2
0 0 0 0 0 0 0 0 0 0 0 0 1 1 1 1 1 1 1 1 2 3 5 7 8 9 10 11 12 11 10 6 2 1 1 1 0 0 0 0 0 0 1 2
0 0 0 0 0 0 0 0 0 0 0 0 1 1 1 2 2 2 1 1 3 4 7 9 8 6 8 11 13 14 14 12 8 5 5 3 1 1 1 0 0 0 1 2
0 0 0 0 0 0 0 0 0 0 0 0 0 0 0 1 2 2 3 4 5 7 10 11 8 6 8 11 15 16 17 17 15 13 12 9 4 1 1 1 1 1 2 3
0 0 0 0 0 0 0 0 0 0 0 0 0 0 0 0 1 1 3 7 11 13 13 12 10 9 11 14 16 17 18 20 20 18 16 13 7 2 1 2 2 3 3 3
0 0 0 0 0 0 0 0 0 0 0 0 0 0 0 0 0 1 4 11 17 19 17 15 15 14 15 17 18 18 19 21 21 19 17 14 8 3 1 2 3 3 3 3
0 0 0 0 0 0 0 0 0 0 0 0 0 0 0 1 2 5 8 15 20 22 22 21 20 19 18 18 18 19 22 23 20 18 16 13 9 5 3 3 3 3 3 3
0 0 0 0 0 0 0 0 0 0 0 0 0 0 0 2 6 9 12 15 18 20 23 24 23 21 19 17 17 19 24 24 20 16 15 13 10 8 6 4 3 3 3 3
0 0 0 0 0 0 0 0 0 0 0 0 0 0 0 2 6 10 11 11 13 17 21 24 24 21 18 17 18 20 23 24 21 17 16 15 12 9 8 6 4 3 3 3
0 0 0 0 0 0 0 0 0 0 0 0 0 0 0 1 5 8 9 7 9 15 20 23 23 21 19 19 20 21 22 23 21 20 19 17 13 10 8 6 5 4 3 3
0 0 0 0 0 0 0 0 0 0 0 0 0 0 1 3 6 8 8 8 10 15 20 22 22 22 23 23 21 20 22 22 21 22 22 20 16 13 10 8 6 5 4 3
0 0 0 0 0 0 0 0 0 0 0 0 0 1 3 6 8 9 10 11 15 18 21 22 22 26 27 24 21 20 20 21 21 22 23 22 20 18 15 12 9 6 4 3
0 0 0 0 0 0 0 0 0 0 0 0 0 1 3 5 8 9 11 15 19 22 23 22 24 26 25 21 18 20 22 23 22 22 22 22 22 20 18 15 11 7 4 4
0 0 0 0 0 1 1 1 1 0 0 0 0 0 1 2 5 8 11 16 21 23 23 24 24 23 19 16 15 18 21 23 24 23 22 23 22 21 19 16 11 6 4 4
0 0 0 0 0 2 3 3 2 1 0 0 0 0 0 2 6 11 14 17 21 23 23 25 25 21 16 14 14 18 21 22 22 22 22 22 21 21 20 17 11 7 5 5
0 0 0 0 0 1 3 3 2 2 1 0 0 1 1 4 10 15 17 18 20 21 22 24 24 19 15 14 15 20 25 24 22 21 21 21 20 21 20 16 12 10 9 9
0 0 0 0 0 1 1 1 1 1 1 0 1 2 3 6 12 16 17 17 19 19 20 19 18 15 13 13 15 21 25 24 22 21 21 21 20 19 17 16 14 13 13 13
0 0 0 0 0 1 0 0 0 0 0 0 1 2 4 8 12 14 14 15 17 18 17 15 12 12 11 12 14 18 22 23 22 21 22 21 19 16 15 16 15 15 15 16
0 0 0 0 0 0 0 0 0 0 0 0 0 2 4 7 10 11 13 15 18 18 14 10 9 9 10 11 13 16 20 21 21 21 22 19 15 14 14 15 15 14 13 14
0 0 0 0 0 0 0 0 0 0 0 0 1 3 7 7 8 11 14 18 21 19 12 8 8 8 8 10 11 14 16 18 18 18 18 15 12 11 12 13 13 13 12 12
0 0 0 0 0 0 0 0 0 0 0 0 1 4 8 9 9 11 15 19 22 20 14 9 8 7 7 9 10 10 11 13 13 11 11 12 11 10 10 12 13 13 12 11
0 0 0 0 0 0 0 0 0 0 1 0 0 3 7 9 10 11 13 16 20 20 15 11 9 7 7 8 9 8 7 8 9 8 8 10 12 12 12 12 13 14 13 12
1 0 0 0 0 1 1 1 0 0 1 1 1 3 5 7 8 10 12 14 17 19 17 12 9 8 8 9 9 7 5 6 7 7 7 10 13 14 12 12 12 13 13 12
2 1 1 1 2 3 3 1 0 1 2 2 3 5 6 6 6 9 11 13 15 17 15 12 9 9 9 10 10 7 6 6 6 7 8 9 10 11 11 10 9 9 9 9
3 2 2 2 3 3 3 1 0 1 3 3 4 6 7 6 5 8 10 12 13 14 12 10 8 9 10 11 10 8 7 6 6 7 8 7 7 8 9 9 7 5 4 4
Wind_Speed
4 5 2 4 4 4 4 3 1 3 2 2 3 4 6 8 8 9 9 9 9 11 8 7 8 8 8 7 7 7 7 5 5 3 3 2 2 2 2 2 3 3 3 4
5 1 4 4 4 3 3 2 1 2 1 2 1 4 3 7 11 11 11 11 12 9 6 7 8 9 9 9 9 8 8 7 6 4 3 2 2 1 2 2 2 3 3 3
4 4 3 4 4 3 2 3 3 2 3 4 2 4 2 3 4 5 7 8 9 10 9 9 9 10 9 10 10 9 8 7 6 5 3 2 2 1 1 1 1 2 3 3
3 3 3 3 4 5 3 5 4 2 3 2 2 2 6 3 4 6 8 8 10 10 9 9 10 10 10 11 9 8 8 7 6 6 5 5 4 3 4 2 2 2 3 3
4 2 3 4 6 7 5 2 3 2 4 2 2 2 8 2 4 8 9 9 10 9 10 10 11 10 9 8 8 7 7 6 6 6 6 5 4 3 2 2 3 2 2 3
4 3 4 5 3 5 5 7 7 6 5 1 2 3 7 4 7 6 6 7 8 8 9 9 8 7 7 7 7 7 7 7 6 6 6 6 6 5 3 3 3 2 2 2
2 2 3 3 3 3 5 7 5 4 4 5 2 2 9 7 7 7 6 6 6 6 7 7 8 8 7 8 8 7 8 7 6 6 6 6 5 5 5 4 4 3 2 2
3 4 4 4 6 6 5 9 9 6 5 4 1 4 8 5 5 3 3 3 4 4 5 6 8 8 8 8 8 8 8 8 7 7 5 4 4 4 4 5 4 4 3 3
6 5 4 2 3 10 7 4 6 8 3 0 4 5 8 3 4 2 0 1 3 5 5 6 6 6 7 8 8 8 9 7 7 7 6 5 5 5 5 4 4 3 3 3
8 3 3 1 5 5 6 10 7 7 6 2 3 3 4 5 4 3 2 1 3 3 3 4 4 5 6 6 6 5 7 7 6 6 6 5 5 5 4 4 4 4 3 3
5 4 2 2 3 6 5 5 6 6 6 7 2 6 6 5 5 4 3 2 2 3 4 4 3 3 3 4 4 5 5 5 5 6 5 4 4 4 4 4 4 4 3 3
5 6 1 3 3 3 5 7 8 7 4 4 4 7 5 4 4 2 1 0 1 2 3 3 4 4 4 4 3 4 4 5 5 5 4 4 4 4 4 4 3 3 3 3
7 7 3 3 4 2 3 4 4 7 7 5 5 6 4 2 1 0 1 1 1 2 4 4 4 4 4 3 3 3 3 3 3 4 4 4 3 4 4 4 3 3 3 2
8 6 7 9 7 4 3 4 5 7 6 5 6 5 4 2 2 1 1 2 3 3 4 4 4 4 4 3 3 3 2 3 3 4 4 4 3 3 3 3 2 2 2 2
6 5 3 3 2 3 3 5 6 5 8 8 7 6 7 5 3 2 2 3 4 4 4 4 3 2 3 3 3 3 2 2 3 4 4 4 3 2 2 2 2 2 2 2
4 6 3 1 1 3 2 2 5 4 4 4 4 5 4 2 1 2 2 3 4 3 3 3 3 2 2 2 3 3 2 2 3 4 3 3 3 3 3 2 2 2 2 2
4 6 5 1 1 3 0 2 3 3 3 6 6 6 2 2 3 3 3 3 3 3 3 3 2 1 1 1 2 2 2 3 3 3 3 2 2 3 2 3 2 2 1 1
7 6 5 3 3 3 6 2 3 4 1 3 3 3 5 4 3 2 2 3 3 3 3 3 3 2 2 2 2 3 3 3 3 3 2 2 3 2 2 3 2 1 1 1
4 8 6 4 3 2 3 1 3 3 2 2 4 3 3 3 4 2 1 2 3 3 3 3 3 3 2 2 2 3 3 3 3 2 2 2 2 3 2 2 2 1 1 1
6 6 7 5 4 5 6 2 1 4 2 3 4 5 5 5 3 3 1 1 2 3 3 4 4 4 3 2 2 4 3 3 2 2 2 2 3 3 2 2 1 1 2 1
4 5 5 4 3 5 5 4 1 4 7 3 5 6 6 5 4 4 3 3 3 4 3 4 5 4 2 2 3 4 3 2 1 2 3 3 3 3 2 2 2 2 2 3
5 5 4 4 3 6 3 1 4 5 2 1 3 4 4 4 4 5 4 4 4 4 4 4 4 3 2 2 4 4 2 1 2 3 4 4 3 2 2 3 3 3 3 3
3 5 6 6 6 4 2 2 3 2 1 1 2 4 6 5 4 4 3 4 3 4 3 3 4 4 3 3 3 3 1 2 4 4 4 3 3 3 3 3 3 3 2 2
1 2 3 1 3 2 2 1 2 0 1 1 3 4 6 6 5 4 3 3 3 3 3 3 4 4 3 3 3 2 2 3 4 5 4 4 4 4 4 3 2 3 2 2
2 2 2 1 3 2 3 1 1 0 2 3 3 3 4 6 5 5 4 4 4 3 3 3 3 4 3 2 3 2 2 4 5 5 4 4 4 4 4 5 4 3 3 1
3 5 5 6 6 4 4 3 1 1 2 3 4 2 2 4 5 4 4 3 3 3 3 4 3 3 2 2 2 2 2 4 5 5 4 3 3 3 4 5 5 10 7 8
Wind_Direction
46 73 162 196 170 153 138 131 186 245 246 164 214 240 219 195 193 196 198 202 210 224 214 187 185 181 175 178 179 185 185 184 166 156 163 165 189 194 200 208 197 187 185 182
48 284 220 160 145 122 119 113 265 296 332 159 230 274 240 199 204 201 200 205 211 217 202 192 185 181 182 185 188 188 191 188 182 179 166 157 155 181 196 201 200 197 192 191
164 227 171 149 149 144 172 180 206 224 12 31 69 340 282 235 227 224 218 212 214 211 202 197 194 190 188 192 191 193 194 188 182 167 135 107 91 73 124 196 211 213 199 194
211 242 169 158 182 154 227 214 187 161 97 328 75 276 281 250 248 233 228 216 216 212 196 193 197 193 195 197 189 187 185 183 178 168 168 170 178 193 210 202 205 215 203 200
223 206 170 191 204 168 202 140 128 115 125 66 19 154 283 315 253 245 233 223 219 208 196 195 197 196 195 189 183 185 179 181 182 183 183 183 194 201 199 196 202 214 216 212
226 232 201 202 188 165 137 73 56 48 72 86 233 165 275 245 232 249 240 226 217 203 196 195 189 180 180 177 178 180 179 190 186 187 188 194 199 192 188 203 207 214 221 225
293 276 240 177 115 88 104 93 48 14 21 248 268 186 250 256 246 231 233 232 215 196 191 190 180 177 177 178 181 181 184 190 183 183 190 200 204 197 201 206 208 207 211 224
167 266 234 188 169 163 162 137 152 177 202 265 319 229 257 277 280 255 233 219 181 175 181 190 184 179 181 185 186 184 186 187 179 183 197 200 209 210 214 210 204 208 212 221
169 243 280 226 168 135 133 149 152 125 142 115 285 291 303 324 347 7 93 143 163 173 186 189 184 179 180 185 193 189 188 188 185 185 183 198 207 210 211 209 207 214 215 220
154 205 285 281 84 41 133 140 108 116 137 203 294 287 263 291 311 329 340 235 205 167 164 164 170 178 182 182 182 177 183 189 185 183 187 201 202 207 206 198 207 214 215 214
139 150 315 49 159 162 109 94 103 108 141 148 198 267 238 238 253 258 263 248 200 168 157 153 159 162 153 143 155 166 175 178 178 184 183 197 196 200 197 200 210 212 211 207
142 122 207 267 275 180 142 153 143 143 174 153 155 260 278 244 250 235 244 239 152 146 139 132 125 114 108 122 148 169 181 184 186 182 178 192 194 188 192 204 210 200 201 203
139 119 98 356 346 27 101 123 128 118 114 142 155 258 309 347 334 335 121 99 100 116 109 104 107 113 122 137 148 159 166 172 173 167 174 181 183 186 198 202 198 192 194 193
117 115 154 183 204 180 142 137 138 121 135 171 206 230 290 307 311 338 90 103 101 105 107 107 116 130 141 142 129 129 133 141 149 154 162 171 184 191 201 193 182 180 172 169
108 126 160 192 193 156 146 156 159 157 167 168 205 209 235 233 228 216 139 112 106 107 112 118 123 124 122 121 113 119 134 139 138 142 155 172 173 164 157 149 152 152 151 162
89 128 130 75 15 141 112 138 161 160 161 172 168 231 243 230 137 116 121 127 124 129 125 117 109 109 122 131 130 131 136 140 139 143 151 150 142 135 137 134 134 138 144 142
101 117 114 171 292 83 293 220 170 162 176 164 187 220 185 156 168 171 161 149 150 143 128 123 118 122 115 121 127 135 139 129 129 135 133 123 132 130 131 128 121 140 153 131
121 105 111 121 112 184 239 264 156 141 173 192 189 191 178 177 161 123 133 154 150 136 128 130 118 94 72 72 85 95 99 110 115 110 106 116 122 121 120 116 122 141 130 131
115 122 107 113 141 253 293 194 156 151 251 223 175 167 143 116 86 45 59 122 150 140 135 127 113 105 88 83 102 102 100 107 110 114 122 120 126 121 119 127 142 160 140 132
54 85 106 114 134 209 237 265 254 120 270 241 175 169 157 126 136 228 189 96 99 99 105 112 106 101 100 85 98 104 101 101 110 132 129 110 109 110 118 134 131 123 131 133
54 55 100 130 161 252 257 296 95 156 231 217 182 179 168 172 191 165 135 111 110 106 105 103 105 103 102 101 103 101 99 103 119 109 97 88 93 114 122 110 97 93 111 110
148 135 153 136 157 240 289 34 168 216 251 158 169 169 152 143 125 128 132 123 110 102 95 95 98 87 73 87 101 95 92 97 95 95 91 89 93 104 103 103 101 103 112 115
168 177 178 180 201 237 273 233 258 219 198 189 161 145 136 134 138 134 127 117 101 96 91 87 97 85 56 56 91 103 105 106 102 93 85 80 81 82 88 107 115 107 109 119
248 132 133 204 261 276 293 303 327 277 195 159 147 145 142 146 144 133 137 126 120 106 102 95 93 85 58 45 66 93 111 110 106 98 88 81 80 77 73 76 86 105 113 119
217 149 133 225 269 325 321 295 269 34 92 100 102 116 138 141 145 152 151 143 138 128 116 104 99 91 69 51 57 67 91 105 105 100 96 90 86 88 83 72 54 56 52 80
207 178 171 210 214 192 242 264 230 156 150 143 130 115 123 143 149 149 152 152 145 137 127 114 107 102 87 67 59 54 87 107 112 107 100 98 98 97 102 100 74 50 53 57